TimeMST,TemperatureF,Dew PointF,Humidity,Sea Level PressureIn,VisibilityMPH,Wind Direction,Wind SpeedMPH,Gust SpeedMPH,PrecipitationIn,Events,Conditions,WindDirDegrees,DateUTC
12:33 AM,21.0,18.0,88,29.80,4.0,NNE,8.1,-,0.00,,Overcast,20,2014-02-04 07:33:00
12:54 AM,21.0,18.0,88,29.81,5.0,NNE,6.9,-,0.00,,Overcast,30,2014-02-04 07:54:00
1:20 AM,21.0,18.0,88,29.80,5.0,NE,5.8,-,N/A,,Overcast,40,2014-02-04 08:20:00
1:30 AM,21.0,18.0,88,29.80,4.0,NNE,5.8,-,0.00,Snow,Light Snow,20,2014-02-04 08:30:00
1:39 AM,19.9,18.0,92,29.80,1.8,North,4.6,-,0.00,Snow,Light Snow,10,2014-02-04 08:39:00
1:54 AM,21.0,18.0,88,29.81,1.0,North,3.5,-,0.00,Snow,Light Snow,360,2014-02-04 08:54:00
2:19 AM,19.9,18.0,92,29.80,0.8,Calm,Calm,-,0.00,Snow,Light Snow,0,2014-02-04 09:19:00
2:54 AM,19.9,18.0,92,29.80,0.5,Calm,Calm,-,0.00,Fog-Snow,Snow,0,2014-02-04 09:54:00
3:29 AM,19.9,17.1,89,29.78,0.8,North,4.6,-,0.00,Snow,Light Snow,360,2014-02-04 10:29:00
3:51 AM,19.4,17.6,93,29.78,1.0,Calm,Calm,-,0.00,Snow,Light Snow,0,2014-02-04 10:51:00
3:54 AM,19.9,18.0,92,29.79,1.0,Calm,Calm,-,0.00,Snow,Light Snow,0,2014-02-04 10:54:00
4:54 AM,19.9,17.1,89,29.84,1.0,NNE,5.8,-,0.00,Snow,Light Snow,30,2014-02-04 11:54:00
5:05 AM,19.9,17.1,89,29.79,0.8,NNE,6.9,-,0.00,Snow,Light Snow,20,2014-02-04 12:05:00
5:28 AM,19.0,16.0,88,29.79,1.2,North,5.8,-,0.00,Snow,Light Snow,10,2014-02-04 12:28:00
5:54 AM,19.0,15.1,85,29.88,1.2,NNE,6.9,-,0.00,Snow,Light Snow,30,2014-02-04 12:54:00
6:54 AM,18.0,14.0,84,29.90,1.8,North,5.8,-,0.00,Snow,Light Snow,360,2014-02-04 13:54:00
7:16 AM,17.1,14.0,88,29.81,0.8,North,8.1,-,0.00,Snow,Light Snow,360,2014-02-04 14:16:00
7:34 AM,17.1,12.9,84,29.82,1.0,North,6.9,-,0.00,Snow,Light Snow,10,2014-02-04 14:34:00
7:54 AM,17.1,12.9,84,29.93,1.8,NNE,8.1,-,0.00,Snow,Light Snow,20,2014-02-04 14:54:00
8:54 AM,16.0,12.0,84,29.95,1.5,NNE,9.2,-,0.00,Snow,Light Snow,30,2014-02-04 15:54:00
9:08 AM,17.1,12.0,81,29.84,2.5,NNE,6.9,-,0.00,Snow,Light Snow,20,2014-02-04 16:08:00
9:31 AM,17.1,12.0,81,29.85,5.0,North,8.1,-,0.00,Snow,Light Snow,10,2014-02-04 16:31:00
9:54 AM,19.0,12.9,77,29.96,2.5,North,4.6,-,0.00,Snow,Light Snow,10,2014-02-04 16:54:00
10:01 AM,19.0,12.9,77,29.85,3.0,NNW,5.8,-,0.00,Snow,Light Snow,330,2014-02-04 17:01:00
10:12 AM,19.0,12.0,74,29.85,2.5,North,8.1,-,0.00,Snow,Light Snow,350,2014-02-04 17:12:00
10:18 AM,18.0,12.9,81,29.86,3.0,NNE,6.9,-,0.00,Snow,Light Snow,20,2014-02-04 17:18:00
10:54 AM,19.0,12.0,74,29.97,4.0,North,6.9,-,0.00,Snow,Light Snow,10,2014-02-04 17:54:00
11:54 AM,19.0,12.0,74,29.96,3.0,NNE,9.2,-,0.00,Snow,Light Snow,30,2014-02-04 18:54:00
12:13 PM,18.0,12.0,78,29.85,2.5,NNE,9.2,-,0.00,Snow,Light Snow,20,2014-02-04 19:13:00
12:46 PM,19.0,12.0,74,29.84,3.0,North,11.5,-,0.00,Snow,Light Snow,10,2014-02-04 19:46:00
12:54 PM,19.0,12.0,74,29.95,2.5,NNE,9.2,-,0.00,Snow,Light Snow,20,2014-02-04 19:54:00
1:11 PM,18.0,12.0,78,29.83,2.5,North,8.1,-,0.00,Snow,Light Snow,360,2014-02-04 20:11:00
1:18 PM,19.0,12.0,74,29.83,3.0,NNE,8.1,-,0.00,Snow,Light Snow,20,2014-02-04 20:18:00
1:54 PM,18.0,10.9,74,29.94,5.0,NNE,9.2,-,0.00,Snow,Light Snow,20,2014-02-04 20:54:00
2:54 PM,17.1,10.9,77,29.98,6.0,ENE,5.8,-,0.00,,Haze,60,2014-02-04 21:54:00
3:54 PM,16.0,10.9,81,30.02,6.0,East,3.5,-,0.00,,Haze,100,2014-02-04 22:54:00
4:13 PM,16.0,10.9,81,29.90,2.0,ENE,5.8,-,0.00,Snow,Light Snow,60,2014-02-04 23:13:00
4:43 PM,16.0,12.0,84,29.91,3.0,NE,5.8,-,0.00,Snow,Light Snow,50,2014-02-04 23:43:00
4:51 PM,15.8,12.2,86,29.92,1.8,NE,8.1,-,0.00,Snow,Light Snow,40,2014-02-04 23:51:00
4:54 PM,16.0,12.0,84,30.06,1.2,NE,6.9,-,0.00,Snow,Light Snow,40,2014-02-04 23:54:00
5:05 PM,16.0,12.0,84,29.92,0.5,NE,6.9,-,0.00,Fog-Snow,Snow,40,2014-02-05 00:05:00
5:25 PM,15.1,12.0,88,29.94,0.2,NNE,6.9,-,0.00,Fog-Snow,Snow,30,2014-02-05 00:25:00
5:33 PM,15.1,12.0,88,29.95,0.5,NE,8.1,-,0.00,Fog-Snow,Snow,40,2014-02-05 00:33:00
5:45 PM,15.1,12.0,88,29.95,1.2,NE,8.1,-,0.00,Snow,Light Snow,40,2014-02-05 00:45:00
5:54 PM,15.1,10.9,84,30.11,1.8,NNE,6.9,-,0.00,Snow,Light Snow,30,2014-02-05 00:54:00
6:01 PM,15.1,10.9,84,29.96,2.0,NNE,9.2,-,0.00,Snow,Light Snow,30,2014-02-05 01:01:00
6:33 PM,14.0,10.9,88,29.99,1.0,NE,8.1,-,0.00,Snow,Light Snow,40,2014-02-05 01:33:00
6:54 PM,14.0,10.9,88,30.16,1.2,NE,10.4,-,0.00,Snow,Light Snow,50,2014-02-05 01:54:00
7:03 PM,14.0,10.9,88,30.00,1.0,NE,6.9,-,0.00,Snow,Light Snow,50,2014-02-05 02:03:00
7:33 PM,12.9,9.0,84,30.02,1.2,ENE,15.0,-,0.00,Snow,Light Snow,60,2014-02-05 02:33:00
7:54 PM,10.9,8.1,88,30.21,1.2,NE,12.7,-,0.00,Snow,Light Snow,50,2014-02-05 02:54:00
8:18 PM,9.0,5.0,84,30.06,2.5,NE,9.2,-,0.00,Snow,Light Snow,50,2014-02-05 03:18:00
8:25 PM,9.0,5.0,84,30.06,2.5,NE,12.7,-,0.00,Snow,Light Snow,50,2014-02-05 03:25:00
8:34 PM,8.1,5.0,87,30.07,3.0,NE,10.4,-,0.00,Snow,Light Snow,50,2014-02-05 03:34:00
8:41 PM,8.1,3.9,83,30.07,3.0,NE,9.2,-,0.00,,Overcast,50,2014-02-05 03:41:00
8:54 PM,8.1,3.9,83,30.28,1.8,NE,8.1,-,0.00,Snow,Light Snow,40,2014-02-05 03:54:00
9:11 PM,8.1,3.9,83,30.09,3.0,NNE,11.5,-,0.00,Snow,Light Snow,30,2014-02-05 04:11:00
9:50 PM,6.8,3.2,85,30.12,2.5,NE,8.1,-,0.00,Snow,Light Snow,40,2014-02-05 04:50:00
9:54 PM,6.1,1.9,83,30.31,2.0,NE,10.4,-,0.00,Snow,Light Snow,50,2014-02-05 04:54:00
10:11 PM,5.0,1.0,84,30.13,1.5,NE,12.7,-,0.00,Snow,Light Snow,50,2014-02-05 05:11:00
10:54 PM,3.9,-0.0,84,30.35,1.5,NE,6.9,-,0.00,Snow,Light Snow,40,2014-02-05 05:54:00
11:04 PM,3.0,-0.9,84,30.15,2.5,NE,8.1,-,0.00,Snow,Light Snow,40,2014-02-05 06:04:00
11:29 PM,1.0,-2.0,87,30.17,3.0,NNE,4.6,-,0.00,Snow,Light Snow,20,2014-02-05 06:29:00
11:54 PM,-0.9,-4.0,87,30.40,5.0,NNE,5.8,-,0.00,,Overcast,30,2014-02-05 06:54:00